Location: Newark
(50.4348°N, 30.5552°E)
Time: 02:17:00
(UTC+00:00)

Vanguard 3 - Pass Details

Date: 23 January 2020
Orbit: 508 x 3263 km, 33.3° (Epoch: 25 February)

Event Time Altitude Azimuth Distance (km) Brightness Sun altitude
Rises 18:29:30 0° 254° (WSW) 7,193 12.7 -36.9°
Reaches altitude 10° 18:35:03 10° 248° (WSW) 6,027 12.0 -37.8°
Maximum altitude 18:50:37 38° 190° (S) 3,320 10.0 -40.1°
Enters shadow 18:51:35 38° 182° (S) 3,263 9.9 -40.3°
